GFSCGP_con_mucape_177.txt.gz
CAPE
0 0 0 0 15 0 0 11 40 11 31 78 125 334 350 458 607 645 565 463 369 297 245 301 180 37 18 19 5 171 0 183 189 276 88 57 21 83 99 145 379 212 754 1334
0 0 0 0 0 0 0 3 16 13 48 33 106 144 225 330 446 495 503 440 424 365 335 350 250 105 74 0 0 216 101 32 580 474 285 334 628 541 994 711 587 676 760 1214
0 0 0 0 0 0 0 7 1 24 47 60 140 153 155 55 143 292 409 395 335 348 323 452 362 326 222 92 367 288 316 924 275 466 561 740 1091 572 282 162 108 143 755 1092
0 0 0 0 0 0 0 3 8 25 32 0 164 141 177 64 1 49 181 202 204 291 481 508 410 363 306 254 239 386 513 571 1035 497 803 656 408 666 273 169 455 1118 1223 1344
0 0 0 0 0 0 0 1 16 0 0 0 0 211 180 96 2 0 23 22 82 342 299 347 577 524 400 347 458 349 483 670 765 857 561 488 952 1004 804 846 687 481 1672 1904
0 0 0 0 0 1 12 0 3 1 0 0 0 8 192 63 5 0 0 0 0 276 344 394 339 482 516 607 697 443 456 490 559 893 764 784 496 577 1101 841 1536 1483 1749 1830
0 0 0 0 0 0 7 0 0 0 0 0 0 0 42 55 21 0 0 0 0 55 247 462 481 523 507 480 803 944 1277 972 1231 1241 1438 1088 1351 1908 2257 1490 1075 1424 1688 1547
0 0 0 0 0 0 1 0 2 0 0 0 0 3 18 42 8 0 0 0 0 0 65 238 325 464 497 532 620 1090 1546 1611 1860 1796 1765 2210 1856 1682 1816 1927 1795 1561 1658 1961
0 0 0 0 0 0 1 0 0 0 0 0 3 46 56 9 0 0 0 0 0 0 2 109 185 304 324 354 485 781 1448 1649 1861 2046 1956 2046 2239 2045 1893 1700 1441 1254 1598 2283
0 0 0 0 0 0 0 0 0 0 0 0 0 17 4 0 0 0 0 0 1 5 13 95 185 269 318 304 461 654 1463 1615 1829 1870 2003 1929 2099 2213 2035 1923 2249 2695 2519 2391
0 0 0 0 0 0 0 0 0 0 0 0 0 0 3 0 0 0 0 0 0 0 20 61 227 240 393 322 408 616 1616 1742 1944 1915 1983 1993 2049 2120 2330 2336 2684 3120 2549 2405
0 0 0 0 0 0 0 0 0 0 0 0 0 0 0 0 0 0 0 0 0 0 1 28 191 335 432 388 407 527 1748 1881 2104 2189 2175 2305 2407 2582 2758 3037 3053 2566 2272 2056
0 0 0 0 0 0 0 0 0 0 0 0 0 0 0 0 0 0 0 0 0 6 5 55 113 423 468 504 541 610 1266 1876 2096 2397 2674 2868 3101 3013 3141 3164 2760 2412 1985 1768
0 0 0 0 0 0 0 0 0 0 0 0 0 0 0 10 28 21 15 89 68 1 9 44 181 402 471 663 694 831 1127 2311 2325 2687 2997 3392 3052 2966 2813 2856 2278 1943 1984 905
0 0 0 0 0 0 0 0 0 0 0 0 0 0 41 40 12 4 41 109 438 705 1004 315 423 509 621 1242 939 1220 1724 2539 3011 3233 3296 3100 3036 2965 2528 2177 2125 1986 956 688
0 0 0 0 0 0 0 0 0 0 0 0 0 0 0 0 24 1 251 289 384 1076 2048 2554 2549 2347 2518 2730 2132 2328 2990 3195 3239 3273 3113 2971 2873 2794 2511 2157 1707 995 436 12
0 0 0 0 0 0 0 0 0 0 0 0 0 0 10 19 46 17 520 571 687 1714 2026 2256 2431 2525 2600 2671 2835 2991 3073 3167 3153 3078 3016 2829 2673 2544 2029 1417 677 40 20 1
0 0 0 0 0 0 0 0 0 0 0 0 0 0 43 13 0 152 381 699 871 1795 1913 2292 2540 2482 2534 2742 2970 3114 3050 2946 2892 2845 2690 2570 2447 2277 1208 496 59 33 1 1
0 0 0 0 0 0 0 0 0 0 0 0 0 0 0 34 76 317 314 653 1086 1685 1764 2185 2475 2429 2618 2766 3055 2843 2835 2765 2711 2612 2438 2420 2313 969 240 26 33 6 0 0
0 0 0 0 0 0 0 0 0 0 0 0 0 0 0 0 0 44 673 954 1195 1523 2066 2600 2740 2515 2727 3050 2943 2740 2686 2623 2603 2492 2325 2045 798 147 21 0 0 2 0 0
0 0 0 0 0 0 0 0 0 0 0 0 0 0 0 17 38 253 24 534 1263 2058 2503 2674 2718 2672 3097 2958 2819 2665 2576 2544 2006 1789 1330 655 116 26 0 0 0 0 0 0
43 0 0 0 0 0 0 0 0 0 0 0 0 0 0 0 166 1729 2213 2398 2520 2776 2893 2742 2952 3182 3045 2864 2750 2635 2528 2212 1661 1288 601 131 4 0 0 0 0 0 0 0
53 97 0 0 0 0 0 0 76 51 1 0 0 0 0 0 328 2859 2890 2708 2656 2725 2877 3047 3085 2969 2912 2804 2715 2514 2268 2096 1636 837 370 16 0 0 0 0 0 0 0 0
19 17 8 0 0 0 0 0 0 56 125 1 0 0 0 55 38 2857 2660 2626 2779 2954 2970 2916 2890 2810 2697 2651 2508 2108 2100 1812 1047 501 150 1 0 0 0 0 0 0 0 0
1 0 1 29 0 0 0 0 2 32 36 53 17 4 0 37 1369 2804 2702 2744 2922 2892 2818 2728 2655 2586 2500 2280 1904 2138 1819 1244 678 352 110 4 0 0 0 0 0 0 0 0
0 4 2 0 0 0 0 21 160 0 22 12 5 11 82 1879 2455 2774 2810 2944 2921 2696 2628 2569 2494 2402 2217 1821 1504 1069 1246 890 514 290 118 3 0 0 0 0 0 0 0 0

GFSCGP_con_mucape_180.txt.gz
CAPE
0 0 0 0 0 0 41 12 2 36 96 134 185 567 709 588 581 418 276 249 232 175 126 57 43 4 0 0 0 0 69 1 0 11 0 10 197 146 91 31 193 498 119 651
0 0 0 0 0 0 0 0 1 48 84 109 363 539 630 618 637 472 396 290 214 158 132 53 22 0 0 0 0 0 53 27 0 0 0 5 4 51 83 419 430 420 553 615
0 0 0 0 0 0 0 0 27 35 7 52 228 297 476 568 515 451 404 336 260 208 167 113 115 22 0 4 11 0 3 2 0 0 0 26 357 507 489 322 248 104 379 842
0 0 0 0 0 0 7 11 8 29 30 3 30 30 243 315 343 362 419 391 302 226 250 156 169 109 2 0 1 0 0 0 139 100 224 313 282 503 608 304 43 375 600 932
0 0 0 0 0 0 0 0 3 14 11 3 0 45 100 157 122 201 290 365 287 244 298 209 205 172 53 43 10 24 1 9 138 14 177 177 157 178 278 433 749 658 807 1306
0 0 0 0 0 0 6 5 0 5 26 0 9 115 58 31 15 53 126 289 235 223 300 233 248 277 213 155 125 98 182 144 193 552 231 248 404 664 909 1139 1055 949 1021 1662
0 0 0 0 0 0 1 0 0 0 0 0 0 73 1 22 22 1 7 132 133 148 320 333 342 305 287 268 284 173 180 192 284 383 522 559 403 339 367 400 665 878 860 1249
0 0 0 0 0 0 0 0 0 0 0 0 0 0 0 16 37 7 0 5 4 141 191 282 342 344 366 419 368 374 289 321 377 408 641 538 613 745 1125 1684 1908 1686 1376 1313
0 0 0 0 0 0 0 0 0 1 0 0 0 0 41 0 52 16 0 0 0 149 199 262 233 264 431 465 490 536 538 523 498 590 710 1317 1075 1142 1324 1366 1572 1607 1293 1190
0 0 0 0 0 0 0 0 0 0 0 0 0 0 0 12 32 15 0 0 0 31 135 250 257 260 277 298 349 618 834 1032 1085 1325 1339 1288 1774 2080 2120 1935 1739 1927 2532 2478
0 0 0 0 0 0 0 0 0 0 0 0 0 0 0 1 2 0 0 0 0 0 9 123 194 217 326 342 377 437 816 1160 1349 1529 1658 1699 1662 1912 2137 2067 1812 1967 2265 2366
0 0 0 0 0 0 0 0 0 0 0 0 0 0 0 0 0 0 0 0 0 0 0 19 87 141 247 284 287 372 801 1089 1264 1478 1568 1707 1784 1816 2001 2034 2057 2724 2959 2631
0 0 0 0 0 0 0 0 0 0 0 0 0 0 0 0 0 0 0 0 0 0 0 0 28 84 183 208 211 295 740 1030 1263 1474 1554 1657 1793 1877 2005 2284 2636 3072 2764 2842
0 0 0 0 0 0 0 0 0 0 0 0 0 0 0 0 0 0 0 0 0 0 0 3 56 100 154 204 213 301 826 1101 1381 1654 1689 1821 2084 2303 2484 2846 3138 3068 2798 2020
0 0 0 0 0 0 0 0 0 0 0 0 0 0 0 0 0 0 0 0 0 0 0 1 29 145 189 288 309 332 463 1250 1542 1814 1968 2374 2385 2595 2830 3013 2804 2888 2525 1856
0 0 0 0 0 0 0 0 0 0 0 0 0 0 0 0 0 0 0 0 0 0 0 0 14 61 221 326 413 443 536 1497 1755 2073 2398 2637 2761 2844 2913 2748 2253 2094 2016 1139
0 0 0 0 0 0 0 0 0 0 0 0 0 0 0 0 8 8 27 25 8 6 0 0 0 51 236 356 455 587 1439 2062 2323 2450 2450 2657 2949 2846 2860 2727 2348 2195 1254 46
0 0 0 0 0 0 0 0 0 0 0 0 0 0 0 0 2 2 0 48 479 1191 972 430 272 551 1052 1116 1114 2070 2433 2506 2525 2490 2574 2850 2822 2803 2642 2485 2279 938 2 6
0 0 0 0 0 0 0 0 0 0 0 0 0 0 0 0 0 0 40 12 881 1350 1453 1423 1363 1646 2005 2099 2252 2265 2335 2377 2504 2585 2811 2756 2724 2599 2342 2231 1165 0 0 4
0 0 0 0 0 0 0 0 0 0 0 0 0 0 0 0 0 0 7 29 837 1187 1557 1835 1799 2061 2252 2290 2210 2114 2295 2465 2613 2767 2791 2718 2582 2321 2257 1516 8 0 0 0
0 0 0 0 0 0 0 0 0 0 0 0 0 0 0 0 0 0 1 176 912 1287 1602 1893 2202 2324 2343 2314 2252 2238 2467 2662 2715 2724 2637 2412 2228 2216 1567 157 0 0 0 0
0 0 0 0 0 0 0 0 0 0 0 0 0 0 0 0 0 0 165 610 1380 1741 2021 1955 2168 2404 2315 2338 2323 2385 2506 2553 2535 2497 2394 2242 2141 1582 259 20 0 0 0 0
1 0 0 0 0 0 0 0 0 0 0 0 0 0 0 35 295 791 1122 1362 1760 2029 2108 2175 2294 2264 2305 2319 2254 2274 2347 2353 2368 2283 2065 1769 1294 414 77 0 0 0 0 0
1 4 1 0 0 0 0 0 0 0 19 6 0 0 0 13 1093 1486 1722 1925 2034 2144 2392 2361 2245 2326 2377 2429 2365 2307 2325 2374 2341 2188 1562 1005 526 193 12 0 0 0 0 0
0 4 0 0 0 0 0 0 0 0 12 1 0 0 0 213 1908 1891 1985 2121 2288 2477 2453 2415 2344 2339 2468 2565 2555 2577 2486 2234 2148 2062 1399 647 325 85 0 0 0 0 0 0
1 55 39 0 0 0 0 18 72 4 1 4 13 21 184 683 1871 2124 2362 2562 2641 2598 2611 2590 2489 2481 2585 2643 2583 2497 2341 1706 1792 1638 890 475 214 23 0 0 0 0 0 0

GFSCGP_con_mucape_186.txt.gz
CAPE
0 0 0 0 0 0 0 0 4 0 43 352 344 379 537 409 314 240 248 131 72 1 0 0 0 0 0 0 0 0 0 0 7 0 0 0 0 0 21 33 37 207 317 221
0 0 0 0 0 0 0 0 1 2 4 94 197 415 532 475 348 258 214 204 165 114 53 4 0 0 0 0 0 0 0 0 0 0 0 0 0 0 0 21 112 342 367 262
0 0 0 0 0 0 0 6 17 0 0 97 267 261 567 485 398 261 194 140 98 83 36 0 0 0 0 0 0 0 0 0 0 0 0 0 0 17 31 83 205 236 230 377
0 0 0 0 0 0 0 0 10 0 0 8 85 33 165 479 427 306 176 186 95 44 45 30 0 0 7 0 0 0 0 0 0 0 0 0 0 12 5 45 62 98 350 462
0 0 0 0 0 0 6 0 39 35 11 10 48 19 8 149 354 303 241 213 226 80 18 9 29 5 5 0 0 0 0 0 0 0 0 17 3 20 41 53 84 123 235 615
0 0 0 0 0 0 1 63 33 4 12 0 2 10 0 100 118 137 161 168 158 219 74 0 4 37 29 17 2 0 0 0 0 0 0 15 103 49 45 64 90 212 513 924
0 0 0 0 0 0 40 46 5 0 0 0 0 0 0 0 1 34 63 69 179 221 204 67 21 35 28 24 4 0 0 0 0 0 22 26 51 76 51 82 117 247 422 556
0 0 0 0 0 0 4 13 0 0 0 0 0 0 0 0 0 0 0 0 115 208 217 155 102 70 89 58 42 17 0 0 0 15 22 35 44 64 82 154 202 314 414 846
0 0 0 0 0 0 0 0 0 0 0 0 0 0 0 0 0 0 0 0 35 165 188 157 138 83 84 96 79 53 16 0 1 14 31 40 39 70 168 261 336 542 864 1234
0 0 0 0 0 0 0 4 0 0 0 0 0 0 0 1 0 0 0 0 0 63 122 120 117 81 80 107 74 97 32 12 10 17 29 45 102 202 314 459 550 762 958 1594
0 0 0 0 0 0 0 0 0 0 0 0 0 0 0 8 0 0 0 0 0 0 41 73 67 51 71 105 78 75 87 54 64 113 139 168 229 283 389 591 699 986 1663 1932
0 0 0 0 0 0 0 0 0 0 0 0 0 0 0 0 0 0 0 0 0 0 0 0 6 34 53 82 95 68 79 130 149 206 248 308 342 718 790 871 1046 1453 1944 1968
0 0 0 0 0 0 0 0 0 0 0 0 0 0 0 0 8 3 0 0 0 0 0 0 0 13 40 75 102 123 133 124 151 220 288 434 566 862 1042 1117 1393 1844 1907 1716
0 0 0 0 0 0 0 0 0 0 0 0 0 0 0 0 10 13 10 1 0 0 0 0 0 0 6 34 70 144 183 184 235 446 623 794 843 954 1081 1324 1564 1841 1791 2027
0 0 0 0 0 0 0 0 0 0 0 0 0 0 0 0 1 0 10 12 11 2 0 0 0 0 0 18 33 70 137 212 397 709 840 931 1001 1118 1287 1466 1654 1805 1985 2494
0 0 0 0 0 0 0 0 0 0 0 0 0 0 0 0 0 0 0 0 0 0 0 0 0 0 0 0 5 47 107 163 479 720 847 960 1078 1218 1363 1473 1640 1892 2308 2565
0 0 0 0 0 0 0 0 0 0 0 0 0 0 0 0 0 0 0 0 0 0 0 0 0 0 0 0 0 5 55 185 550 740 881 991 1143 1263 1399 1547 1817 2149 2552 2428
0 0 0 0 0 0 0 0 0 0 0 0 0 0 0 0 0 0 0 0 0 0 0 0 0 0 0 0 0 2 2 320 587 838 1031 1154 1194 1281 1442 1718 2088 2406 2381 2377
0 0 0 0 0 0 0 0 0 0 0 0 0 0 0 0 0 0 0 0 0 0 0 0 0 5 0 0 1 0 36 458 796 1075 1195 1147 1209 1281 1479 1870 2263 2549 2489 2251
0 0 0 0 0 0 0 0 0 0 0 0 0 0 0 0 0 0 0 0 0 0 0 0 0 0 0 0 0 39 282 601 945 1154 1152 1167 1286 1302 1549 2018 2396 2555 2477 2359
0 0 0 0 0 0 0 0 0 0 0 0 0 0 0 0 0 0 0 0 0 0 0 0 0 0 0 29 230 376 704 804 912 1038 1091 1197 1370 1433 1700 2191 2546 2564 2635 2180
0 0 0 0 0 0 0 0 0 0 0 0 0 0 0 0 0 0 0 0 6 112 231 25 36 317 602 620 545 711 828 873 944 980 1097 1277 1479 1638 1983 2418 2589 2577 2166 1821
0 0 0 0 0 0 0 0 0 0 0 0 0 0 0 0 0 0 0 0 12 415 699 625 598 968 966 825 680 780 796 851 1049 1167 1304 1454 1611 1842 2318 2560 2672 2199 1982 737
0 0 0 0 0 0 0 0 0 0 0 0 0 0 0 0 0 0 0 0 137 744 1031 1121 1031 952 1016 1127 978 821 792 988 1234 1427 1595 1710 1881 2202 2557 2586 2645 1988 1515 56
18 25 0 0 0 0 0 0 0 0 0 0 0 0 0 0 0 0 0 8 477 900 1258 1300 1183 1016 1016 1333 1285 1128 980 1142 1390 1593 1796 2018 2302 2502 2617 2482 2039 1604 162 2
118 5 0 0 1 0 0 0 0 0 0 0 0 0 0 0 0 58 60 375 778 1154 1366 1412 1379 1178 1105 1454 1452 1397 1346 1396 1645 1930 2147 2322 2427 2380 2606 2249 1672 692 13 0

GFSCGP_con_mucape_189.txt.gz
CAPE
0 0 0 0 0 0 45 18 16 9 30 606 534 465 722 476 306 280 211 174 138 65 14 0 0 0 0 0 0 0 0 344 740 473 423 444 296 374 523 551 709 1132 1285 1081
0 0 0 0 0 0 0 0 6 0 107 372 296 482 693 633 348 207 152 179 194 125 34 0 0 0 0 0 0 0 0 30 476 598 512 316 225 104 268 544 1114 1252 1001 1414
0 0 0 0 0 0 0 0 1 1 17 114 320 343 801 763 508 398 306 182 257 288 223 131 4 0 0 0 0 0 0 4 107 175 478 354 275 405 362 484 609 827 1164 1446
0 0 0 0 0 0 0 0 10 13 38 19 198 107 177 772 771 510 462 360 236 229 276 320 240 96 0 0 0 0 0 40 22 120 133 577 509 210 365 605 670 990 1162 1290
0 0 0 0 0 0 0 6 0 3 29 3 142 64 105 349 807 541 462 449 350 175 199 215 263 253 191 113 31 1 0 38 194 6 165 433 587 366 453 647 939 1285 1393 1703
0 0 0 0 0 0 5 0 0 3 5 40 48 40 83 376 500 632 339 447 450 339 227 230 264 281 277 213 144 113 120 247 157 58 214 560 640 734 643 821 887 935 1053 1295
0 0 0 0 0 0 0 12 13 22 21 40 0 47 75 52 234 412 522 468 511 480 381 284 303 340 385 323 252 208 312 319 203 180 364 583 647 865 1033 1199 902 1095 977 1174
0 0 0 0 0 0 0 0 0 0 19 24 0 0 2 0 0 120 447 431 495 537 510 408 277 315 354 360 357 306 375 580 489 436 552 689 832 749 793 983 957 1011 1024 1232
0 0 0 0 0 0 0 0 0 12 5 1 0 0 0 1 0 13 358 383 543 594 530 547 425 345 386 402 380 357 495 594 620 543 613 763 898 950 955 1127 1216 1002 1362 1597
0 0 0 0 0 0 0 0 0 0 5 0 0 0 0 0 0 175 328 371 511 598 531 543 521 466 435 478 487 441 459 587 591 539 620 779 891 950 1026 1107 1197 1360 1695 2033
0 0 0 0 0 0 0 0 0 0 0 0 0 0 0 0 8 180 267 302 491 579 530 519 490 507 548 473 518 516 519 601 646 718 766 947 877 973 1116 1229 1442 1642 1844 2687
0 0 0 0 0 0 0 0 0 0 0 0 0 0 0 0 0 1 161 257 356 433 502 520 511 553 613 593 546 584 613 665 858 1013 1217 945 984 1083 1205 1448 1569 1771 2203 2065
0 0 0 0 0 0 0 0 0 0 0 0 0 0 0 0 0 0 22 73 331 389 460 472 552 640 693 738 880 733 770 770 892 1067 965 934 1009 1230 1500 1661 1800 2057 2094 1729
0 0 0 0 0 0 0 0 0 0 0 0 0 0 0 0 5 10 5 7 194 393 417 440 674 1228 1325 1309 1251 1145 993 905 948 1013 959 1103 1219 1393 1590 1891 2150 2349 1551 1667
0 0 0 0 0 0 0 0 0 0 0 0 0 0 0 0 0 55 60 65 68 182 276 601 779 1194 1146 1351 1203 1261 1297 1243 1205 1082 1136 1573 1546 1720 1872 2139 2358 1709 1510 1487
0 0 0 0 0 0 0 0 0 0 0 0 0 0 0 0 0 0 36 106 173 536 434 685 839 998 1255 1321 1346 1343 1309 1276 1626 1365 1495 1670 1830 2013 2123 2379 1549 1307 1367 1503
0 0 0 0 0 0 0 0 0 0 0 0 0 0 0 0 0 0 0 81 287 329 486 613 803 1039 1226 1239 1361 1294 1373 947 1462 1758 1932 1997 2081 2108 2295 1994 1137 1196 1300 2008
0 0 0 0 0 0 0 0 0 0 0 0 0 0 0 0 0 0 0 0 115 334 452 544 531 868 1021 1103 1278 1354 1197 1411 1672 1910 1863 2004 2081 2178 2143 1420 1091 1071 1481 2062
0 0 0 0 0 0 0 0 0 0 0 0 0 0 0 0 0 0 0 0 100 260 349 431 391 564 849 1004 1246 1362 1307 1234 1556 1777 2050 2063 2123 2178 1652 1066 1042 1199 1767 2136
0 0 0 0 0 0 0 0 0 0 0 0 0 0 0 0 0 0 2 0 16 60 500 586 417 500 575 1033 1225 1273 1308 1495 1721 1899 1937 2071 2266 1875 1218 896 1037 1453 1899 2171
0 0 0 0 0 0 0 0 0 0 0 0 0 0 0 0 0 97 31 0 9 244 153 97 503 484 754 1047 1056 1171 1340 1512 1722 1700 1894 1987 1830 1169 986 918 1142 1684 2066 2213
0 0 0 0 0 0 0 0 0 0 0 0 0 0 0 0 0 1 0 0 12 98 55 36 430 682 1056 955 1069 1486 1624 1934 2072 2088 1951 1774 1231 945 814 992 1326 1916 2268 2196
0 0 0 0 0 0 0 0 0 0 0 0 0 0 0 0 0 0 0 0 44 378 802 124 312 798 749 1286 1297 1799 2209 2177 2192 1820 1589 1338 944 866 986 1117 1465 2011 2296 2227
0 0 0 0 0 0 0 0 0 0 0 2 0 0 0 0 0 0 0 0 135 793 1351 875 770 1210 1438 1397 1525 1877 1688 1508 1482 1400 1033 808 876 1029 1189 1320 1727 2212 2283 2302
3 0 1 0 0 0 0 0 0 0 0 33 2 0 0 0 0 0 25 143 441 1152 1646 1663 1750 2078 1855 1666 1662 1366 997 1325 1235 820 782 940 1075 1238 1385 1616 2095 2396 2262 2230
36 2 0 0 0 0 0 0 0 0 0 4 31 0 0 0 2 43 55 99 369 1215 1967 2025 2049 1986 1627 1537 1209 769 982 1144 886 850 1048 1217 1364 1469 1661 2013 2265 2283 1920 1779

GFSCGP_con_mucape_192.txt.gz
CAPE
0 0 0 0 95 109 35 179 97 60 98 647 651 555 882 665 399 414 597 534 478 504 554 464 434 27 32 108 294 585 979 1102 1462 1083 773 918 870 829 787 677 829 1290 1530 1733
0 0 0 0 1 16 1 84 128 73 115 388 280 395 521 1009 550 256 331 485 593 606 581 563 562 274 46 39 304 505 715 1038 1468 1018 980 788 672 335 288 422 850 1252 1466 1737
0 0 0 0 0 0 15 54 34 77 257 381 257 272 547 1026 786 187 161 243 406 551 625 624 507 427 245 97 116 339 475 438 931 826 1065 1267 1014 1005 271 220 392 1059 1211 1448
0 0 0 0 0 0 31 5 0 56 173 233 369 231 709 1093 1032 402 209 80 121 331 549 530 476 510 431 267 18 156 357 283 302 704 539 768 754 471 196 577 593 890 1329 1530
0 0 0 0 0 0 12 0 0 0 67 126 194 255 172 825 1209 826 528 249 33 88 408 527 477 388 320 218 25 16 250 379 248 390 583 423 946 597 646 697 1201 1553 1856 1719
0 0 0 0 0 0 3 2 4 6 31 206 79 292 199 547 725 1083 699 600 190 12 179 454 614 568 443 264 256 332 674 1036 1009 603 642 842 933 1136 920 1050 1192 1133 1182 1308
0 0 0 0 0 0 0 31 57 52 98 265 145 176 313 263 379 576 920 603 507 71 18 255 475 621 608 554 519 560 802 1161 1088 945 494 684 995 1480 1607 1785 1362 1518 1273 1308
0 0 0 0 0 0 0 8 64 144 280 293 140 81 269 101 52 62 439 619 574 311 0 96 359 517 554 573 654 678 819 1263 1156 894 700 921 1229 1275 1315 1470 1439 1445 1414 1473
0 0 0 0 0 0 0 41 39 53 166 188 153 94 85 56 126 13 351 624 506 384 54 37 197 415 554 636 711 752 900 1267 1356 1085 1125 1264 1587 1669 1367 1475 1706 1702 1909 1783
0 0 0 0 0 0 0 0 27 31 146 147 169 137 152 170 75 211 616 703 471 378 109 82 92 326 478 583 687 787 859 1194 1377 1319 1291 1365 1562 1786 1900 2001 2085 1988 1989 2490
0 0 0 0 0 0 0 0 7 16 107 246 248 188 141 101 12 311 757 643 463 382 72 97 48 203 424 488 580 703 826 1091 1413 1492 1495 1595 1660 1819 1996 1982 2070 2144 2447 2684
0 0 0 0 0 0 0 0 0 17 96 117 245 233 38 0 0 368 745 275 408 177 22 35 78 225 441 486 570 707 810 1069 1369 1602 1787 1757 1780 1754 1819 2136 2109 2345 2603 2779
0 0 0 0 0 0 0 0 0 0 107 115 153 157 41 94 325 384 526 189 524 331 12 38 160 331 502 572 611 716 977 1089 1407 1774 1843 1832 1791 1881 1968 2026 2340 2545 2754 2872
0 0 0 0 0 0 0 0 0 0 55 149 76 104 62 22 103 442 443 114 497 543 110 145 410 937 965 1283 1096 1131 1045 1112 1422 1762 1873 1933 1898 1896 1950 2318 2644 2791 2959 2690
0 0 0 0 0 0 0 0 0 0 0 54 126 52 135 44 7 361 463 53 425 799 680 432 669 1137 1291 1754 1677 1672 1400 1680 1525 1832 1908 2118 2191 2190 2282 2575 2832 3060 2992 2346
0 0 0 0 0 0 0 0 0 0 0 8 56 77 49 13 4 243 496 465 423 668 727 855 977 1350 1744 2176 2122 1982 2117 2590 2722 2624 2101 2448 2433 2494 2652 2821 3068 3116 2644 1708
0 0 0 0 0 0 0 0 0 0 0 0 3 38 49 19 3 0 51 564 628 642 814 987 1318 2083 2393 2380 3132 2544 2718 2408 2714 2665 2490 2537 2786 2697 2876 3000 3185 2855 1941 710
0 0 0 0 0 0 0 0 0 0 0 0 0 48 51 15 25 2 0 0 601 688 641 1117 1329 2202 2889 2217 2530 2699 2093 3175 2398 2421 2701 2890 3145 2884 3013 3135 2918 2213 1003 709
0 0 0 0 0 0 0 0 0 0 0 0 0 0 2 4 6 3 0 10 8 311 1063 1482 1399 2168 2830 2514 3068 3483 3059 2708 2501 2745 3021 2822 2976 3039 3057 3258 2871 1550 640 739
0 0 0 0 0 0 0 0 0 0 0 0 0 0 0 0 0 0 0 21 101 71 248 889 1007 1330 1937 3122 3385 3727 3503 3249 3159 3070 3456 3170 3134 3338 3290 3366 2172 1049 697 855
0 0 0 0 0 0 0 0 0 0 0 0 0 0 0 0 0 0 0 108 107 133 329 733 996 1442 2065 2979 3324 3523 3473 3313 3025 2391 2572 3007 3083 3533 3585 2976 1269 552 749 1012
0 0 0 0 0 0 0 0 0 0 0 0 0 0 0 0 0 0 0 140 129 263 518 957 1081 1210 2145 2899 3296 3435 3321 3487 3187 3141 2939 3191 3284 2885 2779 1806 752 638 833 1237
0 0 0 0 0 0 0 0 0 0 0 77 94 82 0 0 0 0 2 17 142 258 687 846 899 1380 1751 3039 2966 3087 3223 3669 3632 3768 3789 3421 3149 2463 2039 1248 624 741 967 1372
61 1 15 4 0 0 0 0 0 0 0 8 33 166 161 0 0 2 81 269 371 459 701 1299 843 1070 2484 2325 2334 2418 3419 3643 3607 3256 3285 2994 2489 2239 1419 1057 675 788 1068 1441
112 40 103 77 43 0 0 0 0 0 0 0 9 110 278 146 0 6 356 1241 747 1527 1037 1551 1736 2407 2348 1973 2104 2067 2968 3253 2842 2712 2584 2207 1915 1086 949 1107 761 841 1022 1583
19 0 29 47 0 0 0 0 0 0 0 4 293 335 350 442 21 0 104 277 803 838 1294 2116 2073 2030 2241 2257 2077 2998 3036 3303 3036 2382 2042 1737 1314 1112 823 799 926 1058 1225 1855